Massena, NY

4:34 PM EST on February 10, 2016 (GMT -0500)
Massena International-Richards

Weather History for KMSS - February, 2012

Change the Weather History Date:

Monday, February 20, 2012

  Actual Average Record
Temperature  
Mean Temperature 23 °F 19 °F  
Max Temperature 35 °F 29 °F 63 °F (1994)
Min Temperature 11 °F 9 °F -18 °F (1966)
Degree Days  
Heating Degree Days 42 46  
Month to date heating degree days 699 966  
Since 1 July heating degree days 4189 5629  
Cooling Degree Days 0 0  
Month to date cooling degree days 0  
Year to date cooling degree days 0  
Moisture  
Dew Point 14 °F    
Average Humidity 68    
Maximum Humidity 83    
Minimum Humidity 52    
Precipitation  
Precipitation 0.00 in 0.07 in 0.56 in (1971)
Month to date precipitation 0.11 1.22  
Year to date precipitation 2.32 3.40  
Sea Level Pressure  
Sea Level Pressure 30.30 in    
Wind  
Wind Speed 6 mph (WSW)    
Max Wind Speed 15 mph    
Max Gust Speed 17 mph    
Visibility 10 miles    
Events      
T = Trace of Precipitation, MM = Missing Value Source: NWS Daily Summary

Daily Weather History Graph

Daily Weather History Graph

Search for Another Location

Airport or City:

Trip Planner

Search our weather history database for the weather conditions in past years. The results will help you decide how hot, cold, wet, or windy it might be!

Date:

Astronomy

Feb. 20, 2012 Rise Set
Actual Time 6:53 AM EST 5:33 PM EST
Civil Twilight 6:23 AM EST 6:03 PM EST
Nautical Twilight 5:49 AM EST 6:37 PM EST
Astronomical Twilight 5:15 AM EST 7:11 PM EST
Moon 5:50 AM EST (2/20) 4:35 PM EST (2/20)
Length of Visible Light 11h 40m
Length of Day
10h 40m
Waning Crescent, 2% of the Moon is Illuminated
Feb 20
Waning Crescent
Feb 21
New
Feb 29
First Quarter
Mar 8
Full
Mar 14
Last Quarter

Hourly Weather History & Observations

Time (EST) Temp. Windchill Dew Point Humidity Pressure Visibility Wind Dir Wind Speed Gust Speed Precip Events Conditions
12:53 AM 21.0 °F 13.4 °F 12.9 °F 71% 30.19 in 10.0 mi NW 5.8 mph - N/A   Clear
1:53 AM 19.0 °F 12.3 °F 10.9 °F 71% 30.20 in 10.0 mi NW 4.6 mph - N/A   Clear
2:53 AM 19.0 °F 12.3 °F 10.0 °F 68% 30.20 in 10.0 mi NNW 4.6 mph - N/A   Clear
3:53 AM 17.1 °F 10.0 °F 9.0 °F 71% 30.22 in 10.0 mi NNW 4.6 mph - N/A   Clear
4:53 AM 16.0 °F 8.8 °F 8.1 °F 71% 30.24 in 10.0 mi NNW 4.6 mph - N/A   Clear
5:53 AM 15.1 °F - 9.0 °F 77% 30.26 in 10.0 mi Calm Calm - N/A   Clear
6:53 AM 10.9 °F - 7.0 °F 84% 30.27 in 10.0 mi Calm Calm - N/A   Clear
7:53 AM 15.1 °F - 10.0 °F 80% 30.30 in 10.0 mi Calm Calm - N/A   Clear
8:53 AM 19.0 °F 13.9 °F 10.0 °F 68% 30.32 in 10.0 mi Variable 3.5 mph - N/A   Clear
9:53 AM 21.0 °F 14.6 °F 10.0 °F 63% 30.32 in 10.0 mi SSW 4.6 mph - N/A   Mostly Cloudy
10:53 AM 24.1 °F 19.7 °F 10.9 °F 57% 30.32 in 10.0 mi West 3.5 mph - N/A   Overcast
11:53 AM 26.1 °F 16.8 °F 12.9 °F 58% 30.33 in 10.0 mi WSW 9.2 mph - N/A   Overcast
12:53 PM 28.9 °F 20.4 °F 15.1 °F 56% 30.32 in 10.0 mi WSW 9.2 mph - 0.00 in   Clear
1:53 PM 32.0 °F 25.6 °F 17.1 °F 54% 30.32 in 10.0 mi West 6.9 mph - 0.00 in   Partly Cloudy
2:53 PM 34.0 °F 26.6 °F 19.0 °F 54% 30.32 in 10.0 mi WSW 9.2 mph - N/A   Partly Cloudy
3:53 PM 35.1 °F 27.9 °F 19.9 °F 54% 30.32 in 10.0 mi West 9.2 mph - N/A   Clear
4:53 PM 34.0 °F 26.0 °F 19.0 °F 54% 30.32 in 10.0 mi West 10.4 mph - N/A   Clear
5:53 PM 30.9 °F 24.3 °F 19.0 °F 61% 30.32 in 10.0 mi SW 6.9 mph - N/A   Clear
6:53 PM 28.0 °F 20.8 °F 19.0 °F 69% 30.33 in 10.0 mi SW 6.9 mph - N/A   Clear
7:53 PM 28.9 °F 21.1 °F 19.9 °F 69% 30.34 in 10.0 mi SW 8.1 mph - N/A   Clear
8:53 PM 27.0 °F 18.0 °F 19.9 °F 75% 30.34 in 10.0 mi SW 9.2 mph - N/A   Clear
9:53 PM 26.1 °F 17.6 °F 19.9 °F 78% 30.35 in 10.0 mi SW 8.1 mph - N/A   Clear
10:53 PM 24.1 °F 17.0 °F 18.0 °F 77% 30.35 in 10.0 mi SW 5.8 mph - N/A   Clear
11:53 PM 24.1 °F 17.0 °F 19.0 °F 81% 30.34 in 10.0 mi SSW 5.8 mph - N/A   Clear